GIA324 WIII-WARR

Flight info

Callsign GIA324
Flight time 1h 5m
Altitude 33000
Route CA T3 BA
Aircraft B738/M-SDE2E3FGHIRWXY/LB1

Departure

Time 2026-05-08 13:25
Airport Soekarno-Hatta International Airport (WIII)

Arrival

Time 2026-05-08 14:30
Airport Juanda International Airport (WARR)
Time Latitude Longitude Altitude Speed Heading
2026-05-08 12:56 -6.11676 106.66624 37 ft 0 kts 166°
2026-05-08 13:12 -6.11663 106.66620 35 ft 4 kts 153°
2026-05-08 13:13 -6.11643 106.66611 36 ft 4 kts 158°
2026-05-08 13:13 -6.11619 106.66601 35 ft 3 kts 158°
2026-05-08 13:13 -6.11597 106.66596 35 ft 4 kts 208°
2026-05-08 13:13 -6.11584 106.66613 35 ft 4 kts 248°
2026-05-08 13:14 -6.11580 106.66623 36 ft 0 kts 248°
2026-05-08 13:16 -6.11582 106.66618 33 ft 3 kts 248°
2026-05-08 13:17 -6.11603 106.66566 36 ft 11 kts 248°
2026-05-08 13:17 -6.11634 106.66486 37 ft 12 kts 248°
2026-05-08 13:17 -6.11622 106.66407 37 ft 13 kts 323°
2026-05-08 13:17 -6.11537 106.66370 37 ft 13 kts 340°
2026-05-08 13:18 -6.11443 106.66333 37 ft 16 kts 338°
2026-05-08 13:18 -6.11360 106.66292 38 ft 12 kts 309°
2026-05-08 13:18 -6.11369 106.66206 36 ft 14 kts 248°
2026-05-08 13:18 -6.11409 106.66106 38 ft 17 kts 248°
2026-05-08 13:19 -6.11455 106.65990 36 ft 19 kts 248°
2026-05-08 13:19 -6.11508 106.65859 37 ft 21 kts 248°
2026-05-08 13:19 -6.11560 106.65727 37 ft 20 kts 248°
2026-05-08 13:19 -6.11612 106.65597 37 ft 20 kts 248°
2026-05-08 13:20 -6.11662 106.65472 36 ft 19 kts 248°
2026-05-08 13:20 -6.11710 106.65350 38 ft 18 kts 248°
2026-05-08 13:20 -6.11757 106.65233 35 ft 18 kts 248°
2026-05-08 13:20 -6.11802 106.65119 37 ft 17 kts 248°
2026-05-08 13:21 -6.11846 106.65010 37 ft 17 kts 248°
2026-05-08 13:21 -6.11888 106.64905 37 ft 16 kts 248°
2026-05-08 13:21 -6.11928 106.64804 38 ft 15 kts 248°
2026-05-08 13:21 -6.11967 106.64705 38 ft 16 kts 248°
2026-05-08 13:22 -6.12010 106.64596 37 ft 18 kts 248°
2026-05-08 13:22 -6.12061 106.64470 36 ft 21 kts 248°
2026-05-08 13:22 -6.12119 106.64325 38 ft 24 kts 248°
2026-05-08 13:22 -6.12181 106.64168 37 ft 26 kts 248°
2026-05-08 13:23 -6.12245 106.64008 38 ft 18 kts 248°
2026-05-08 13:23 -6.12237 106.63913 38 ft 13 kts 312°
2026-05-08 13:23 -6.12170 106.63889 38 ft 8 kts 14°
2026-05-08 13:23 -6.12119 106.63910 40 ft 8 kts 22°
2026-05-08 13:24 -6.12078 106.63944 38 ft 8 kts 61°
2026-05-08 13:24 -6.12048 106.64017 39 ft 29 kts 68°
2026-05-08 13:24 -6.11876 106.64445 40 ft 104 kts 68°
2026-05-08 13:24 -6.11524 106.65323 65 ft 162 kts 68°
2026-05-08 13:25 -6.11097 106.66437 674 ft 170 kts 68°
2026-05-08 13:25 -6.10661 106.67488 1515 ft 164 kts 57°
2026-05-08 13:25 -6.09888 106.68374 2114 ft 179 kts 45°
2026-05-08 13:25 -6.08937 106.69345 2439 ft 210 kts 46°
2026-05-08 13:26 -6.07854 106.70463 2657 ft 235 kts 46°
2026-05-08 13:26 -6.06697 106.71673 3182 ft 244 kts 47°
2026-05-08 13:26 -6.05477 106.72962 3616 ft 264 kts 47°
2026-05-08 13:26 -6.04199 106.74325 4348 ft 270 kts 47°
2026-05-08 13:27 -6.02908 106.75711 4821 ft 272 kts 47°
2026-05-08 13:27 -6.01606 106.77114 5567 ft 276 kts 47°
2026-05-08 13:27 -6.00302 106.78526 6448 ft 277 kts 50°
2026-05-08 13:27 -5.99441 106.80238 7172 ft 280 kts 81°
2026-05-08 13:28 -5.99608 106.82172 7970 ft 281 kts 105°
2026-05-08 13:28 -6.00145 106.84076 8709 ft 286 kts 106°
2026-05-08 13:28 -6.00703 106.86010 9476 ft 290 kts 106°
2026-05-08 13:28 -6.01269 106.87966 10211 ft 294 kts 106°
2026-05-08 13:29 -6.01853 106.89999 10533 ft 315 kts 106°
2026-05-08 13:29 -6.02471 106.92167 10919 ft 329 kts 106°
2026-05-08 13:29 -6.03101 106.94391 11569 ft 333 kts 106°
2026-05-08 13:29 -6.03734 106.96639 12320 ft 335 kts 106°
2026-05-08 13:30 -6.04367 106.98898 13056 ft 338 kts 106°
2026-05-08 13:30 -6.05006 107.01183 13769 ft 341 kts 106°
2026-05-08 13:30 -6.05648 107.03484 14412 ft 345 kts 106°
2026-05-08 13:30 -6.06298 107.05818 15088 ft 347 kts 106°
2026-05-08 13:31 -6.06952 107.08166 15756 ft 351 kts 106°
2026-05-08 13:31 -6.07612 107.10536 16405 ft 354 kts 106°
2026-05-08 13:31 -6.08279 107.12931 17058 ft 358 kts 106°
2026-05-08 13:31 -6.08951 107.15348 17711 ft 361 kts 106°
2026-05-08 13:32 -6.09629 107.17788 18321 ft 364 kts 106°
2026-05-08 13:32 -6.10314 107.20251 18846 ft 368 kts 106°
2026-05-08 13:32 -6.11004 107.22735 19382 ft 371 kts 106°
2026-05-08 13:32 -6.11701 107.25243 19902 ft 374 kts 106°
2026-05-08 13:33 -6.12395 107.27741 20421 ft 378 kts 106°
2026-05-08 13:33 -6.13113 107.30326 20954 ft 381 kts 106°
2026-05-08 13:33 -6.13820 107.32872 21441 ft 385 kts 106°
2026-05-08 13:33 -6.14544 107.35479 21932 ft 389 kts 106°
2026-05-08 13:34 -6.15274 107.38111 22420 ft 393 kts 105°
2026-05-08 13:34 -6.16011 107.40766 22887 ft 397 kts 105°
2026-05-08 13:34 -6.16754 107.43445 23343 ft 401 kts 105°
2026-05-08 13:34 -6.17508 107.46160 23742 ft 404 kts 105°
2026-05-08 13:35 -6.18263 107.48884 24157 ft 406 kts 105°
2026-05-08 13:35 -6.19024 107.51627 24577 ft 408 kts 105°
2026-05-08 13:35 -6.19786 107.54377 24986 ft 410 kts 105°
2026-05-08 13:35 -6.20555 107.57150 25373 ft 413 kts 105°
2026-05-08 13:36 -6.21327 107.59938 25756 ft 415 kts 105°
2026-05-08 13:36 -6.22104 107.62742 26136 ft 418 kts 105°
2026-05-08 13:36 -6.22885 107.65562 26522 ft 420 kts 105°
2026-05-08 13:36 -6.23670 107.68398 26894 ft 422 kts 105°
2026-05-08 13:37 -6.24460 107.71250 27259 ft 425 kts 105°
2026-05-08 13:37 -6.25255 107.74121 27609 ft 428 kts 105°
2026-05-08 13:37 -6.26054 107.77008 27965 ft 430 kts 105°
2026-05-08 13:37 -6.26855 107.79902 28348 ft 431 kts 105°
2026-05-08 13:38 -6.27657 107.82805 28845 ft 429 kts 105°
2026-05-08 13:38 -6.28453 107.85683 29383 ft 427 kts 105°
2026-05-08 13:38 -6.29250 107.88562 29875 ft 426 kts 105°
2026-05-08 13:38 -6.30039 107.91419 30273 ft 426 kts 105°
2026-05-08 13:39 -6.30834 107.94295 30686 ft 425 kts 105°
2026-05-08 13:39 -6.31624 107.97154 31130 ft 423 kts 105°
2026-05-08 13:39 -6.32410 107.99999 31565 ft 422 kts 105°
2026-05-08 13:39 -6.33195 108.02842 31976 ft 422 kts 105°
2026-05-08 13:40 -6.33978 108.05678 32384 ft 421 kts 104°
2026-05-08 13:40 -6.34759 108.08507 32809 ft 420 kts 104°
2026-05-08 13:40 -6.36312 108.14134 32892 ft 420 kts 104°
2026-05-08 13:41 -6.37874 108.19798 32900 ft 420 kts 104°
2026-05-08 13:41 -6.39435 108.25458 32903 ft 420 kts 104°
2026-05-08 13:42 -6.40997 108.31127 32900 ft 421 kts 104°
2026-05-08 13:42 -6.42562 108.36808 32899 ft 422 kts 104°
2026-05-08 13:43 -6.44126 108.42491 32895 ft 422 kts 105°
2026-05-08 13:43 -6.45690 108.48172 32897 ft 422 kts 105°
2026-05-08 13:44 -6.47253 108.53855 32895 ft 421 kts 105°
2026-05-08 13:44 -6.48815 108.59535 32892 ft 421 kts 105°
2026-05-08 13:45 -6.50375 108.65212 32891 ft 421 kts 105°
2026-05-08 13:45 -6.51934 108.70889 32892 ft 421 kts 105°
2026-05-08 13:46 -6.53494 108.76568 32893 ft 421 kts 105°
2026-05-08 13:46 -6.55052 108.82247 32893 ft 421 kts 105°
2026-05-08 13:47 -6.56610 108.87927 32893 ft 421 kts 105°
2026-05-08 13:47 -6.58168 108.93608 32893 ft 422 kts 105°
2026-05-08 13:48 -6.59726 108.99294 32891 ft 422 kts 105°
2026-05-08 13:48 -6.61284 109.04984 32885 ft 422 kts 105°
2026-05-08 13:49 -6.62843 109.10678 32886 ft 423 kts 105°
2026-05-08 13:49 -6.64404 109.16382 32886 ft 423 kts 105°
2026-05-08 13:50 -6.65967 109.22096 32886 ft 424 kts 105°
2026-05-08 13:50 -6.67530 109.27815 32881 ft 424 kts 105°
2026-05-08 13:51 -6.69094 109.33538 32884 ft 424 kts 105°
2026-05-08 13:51 -6.70659 109.39268 32880 ft 425 kts 105°
2026-05-08 13:52 -6.72213 109.44960 32878 ft 425 kts 105°
2026-05-08 13:52 -6.73777 109.50692 32879 ft 425 kts 105°
2026-05-08 13:53 -6.75340 109.56426 32879 ft 425 kts 105°
2026-05-08 13:53 -6.76650 109.61229 32882 ft 425 kts 105°
2026-05-08 13:54 -6.78466 109.67896 32882 ft 425 kts 105°
2026-05-08 13:54 -6.79775 109.72701 32881 ft 425 kts 105°
2026-05-08 13:55 -6.81589 109.79367 32882 ft 425 kts 105°
2026-05-08 13:56 -6.83674 109.87031 32882 ft 425 kts 105°
2026-05-08 13:56 -6.85013 109.91958 32885 ft 424 kts 105°
2026-05-08 13:57 -6.86569 109.97683 32887 ft 424 kts 105°
2026-05-08 13:57 -6.88124 110.03410 32883 ft 424 kts 105°
2026-05-08 13:58 -6.89679 110.09139 32879 ft 424 kts 105°
2026-05-08 13:58 -6.91233 110.14867 32872 ft 424 kts 105°
2026-05-08 13:59 -6.92786 110.20595 32865 ft 424 kts 105°
2026-05-08 13:59 -6.94339 110.26324 32860 ft 425 kts 105°
2026-05-08 14:00 -6.95893 110.32061 32859 ft 425 kts 105°
2026-05-08 14:00 -6.97374 110.37814 32851 ft 425 kts 100°
2026-05-08 14:01 -6.97728 110.43748 32858 ft 425 kts 91°
2026-05-08 14:01 -6.97772 110.49658 32859 ft 425 kts 90°
2026-05-08 14:02 -6.97834 110.55652 32609 ft 426 kts 91°
2026-05-08 14:02 -6.97878 110.58625 32371 ft 422 kts 91°
2026-05-08 14:02 -6.97927 110.61557 32124 ft 417 kts 91°
2026-05-08 14:02 -6.97977 110.64458 31884 ft 413 kts 91°
2026-05-08 14:03 -6.98028 110.67301 31650 ft 411 kts 91°
2026-05-08 14:03 -6.98080 110.70194 31349 ft 406 kts 91°
2026-05-08 14:03 -6.98131 110.73023 30995 ft 403 kts 91°
2026-05-08 14:03 -6.98181 110.75837 30639 ft 401 kts 91°
2026-05-08 14:04 -6.98229 110.78593 30277 ft 399 kts 91°
2026-05-08 14:04 -6.98279 110.81385 29868 ft 398 kts 91°
2026-05-08 14:04 -6.98327 110.84158 29445 ft 395 kts 91°
2026-05-08 14:04 -6.98375 110.86914 29027 ft 392 kts 91°
2026-05-08 14:05 -6.98423 110.89649 28623 ft 389 kts 91°
2026-05-08 14:05 -6.98470 110.92359 28237 ft 387 kts 91°
2026-05-08 14:05 -6.98516 110.95059 27852 ft 384 kts 91°
2026-05-08 14:05 -6.98562 110.97737 27461 ft 382 kts 91°
2026-05-08 14:06 -6.98607 111.00398 27079 ft 379 kts 91°
2026-05-08 14:06 -6.98653 111.03046 26698 ft 377 kts 91°
2026-05-08 14:06 -6.98697 111.05677 26317 ft 375 kts 91°
2026-05-08 14:06 -6.98742 111.08296 25952 ft 373 kts 91°
2026-05-08 14:07 -6.98786 111.10903 25575 ft 372 kts 92°
2026-05-08 14:07 -6.98830 111.13496 25188 ft 370 kts 91°
2026-05-08 14:07 -6.98873 111.16077 24813 ft 369 kts 92°
2026-05-08 14:07 -6.98917 111.18662 24434 ft 368 kts 91°
2026-05-08 14:08 -6.98960 111.21234 24049 ft 367 kts 91°
2026-05-08 14:08 -6.99002 111.23802 23667 ft 366 kts 92°
2026-05-08 14:08 -6.99045 111.26363 23255 ft 366 kts 91°
2026-05-08 14:08 -6.99087 111.28913 22851 ft 363 kts 91°
2026-05-08 14:09 -6.99129 111.31447 22461 ft 361 kts 92°
2026-05-08 14:09 -6.99170 111.33960 22096 ft 358 kts 92°
2026-05-08 14:09 -6.99211 111.36459 21720 ft 355 kts 92°
2026-05-08 14:09 -6.99251 111.38935 21355 ft 353 kts 92°
2026-05-08 14:10 -6.99298 111.41398 20991 ft 350 kts 94°
2026-05-08 14:10 -6.99712 111.43792 20631 ft 346 kts 106°
2026-05-08 14:10 -7.00364 111.46114 20284 ft 343 kts 108°
2026-05-08 14:10 -7.01047 111.48411 19935 ft 342 kts 108°
2026-05-08 14:11 -7.01727 111.50697 19580 ft 340 kts 108°
2026-05-08 14:11 -7.02404 111.52996 19214 ft 339 kts 108°
2026-05-08 14:11 -7.03055 111.55242 18858 ft 337 kts 107°
2026-05-08 14:11 -7.03706 111.57508 18494 ft 337 kts 107°
2026-05-08 14:12 -7.04351 111.59770 18140 ft 336 kts 107°
2026-05-08 14:12 -7.04991 111.62023 17751 ft 334 kts 107°
2026-05-08 14:12 -7.05626 111.64266 17380 ft 332 kts 107°
2026-05-08 14:12 -7.06256 111.66492 17023 ft 330 kts 107°
2026-05-08 14:13 -7.06881 111.68703 16675 ft 328 kts 107°
2026-05-08 14:13 -7.07501 111.70901 16327 ft 326 kts 107°
2026-05-08 14:13 -7.08119 111.73089 15982 ft 324 kts 107°
2026-05-08 14:13 -7.08733 111.75263 15640 ft 322 kts 107°
2026-05-08 14:14 -7.09342 111.77423 15292 ft 320 kts 107°
2026-05-08 14:14 -7.09948 111.79571 14954 ft 318 kts 107°
2026-05-08 14:14 -7.10552 111.81709 14623 ft 317 kts 107°
2026-05-08 14:14 -7.11154 111.83844 14278 ft 316 kts 107°
2026-05-08 14:15 -7.11753 111.85969 13930 ft 315 kts 107°
2026-05-08 14:15 -7.12351 111.88091 13570 ft 315 kts 106°
2026-05-08 14:15 -7.12948 111.90209 13203 ft 313 kts 106°
2026-05-08 14:15 -7.13541 111.92314 12853 ft 311 kts 106°
2026-05-08 14:16 -7.14130 111.94402 12509 ft 309 kts 106°
2026-05-08 14:16 -7.14707 111.96452 12348 ft 296 kts 106°
2026-05-08 14:16 -7.15250 111.98382 12276 ft 280 kts 106°
2026-05-08 14:16 -7.15793 112.00250 12099 ft 278 kts 109°
2026-05-08 14:17 -7.16495 112.02047 11802 ft 281 kts 114°
2026-05-08 14:17 -7.17290 112.03868 11506 ft 281 kts 114°
2026-05-08 14:17 -7.18077 112.05642 11215 ft 280 kts 114°
2026-05-08 14:17 -7.18878 112.07457 10927 ft 279 kts 114°
2026-05-08 14:18 -7.19658 112.09244 10640 ft 279 kts 114°
2026-05-08 14:18 -7.20422 112.11007 10358 ft 278 kts 114°
2026-05-08 14:18 -7.21191 112.12789 10072 ft 277 kts 114°
2026-05-08 14:18 -7.21956 112.14570 9780 ft 277 kts 113°
2026-05-08 14:19 -7.22718 112.16347 9472 ft 276 kts 113°
2026-05-08 14:19 -7.23476 112.18118 9165 ft 275 kts 113°
2026-05-08 14:19 -7.24231 112.19883 8867 ft 274 kts 113°
2026-05-08 14:19 -7.24981 112.21638 8596 ft 272 kts 113°
2026-05-08 14:20 -7.25727 112.23384 8306 ft 271 kts 113°
2026-05-08 14:20 -7.26471 112.25126 8025 ft 270 kts 113°
2026-05-08 14:20 -7.27210 112.26855 7748 ft 268 kts 113°
2026-05-08 14:20 -7.27947 112.28580 7460 ft 267 kts 113°
2026-05-08 14:21 -7.28679 112.30295 7183 ft 266 kts 113°
2026-05-08 14:21 -7.29411 112.32008 6918 ft 265 kts 113°
2026-05-08 14:21 -7.29999 112.33747 6629 ft 261 kts 104°
2026-05-08 14:21 -7.30366 112.35527 6353 ft 257 kts 101°
2026-05-08 14:22 -7.30687 112.37277 6062 ft 251 kts 101°
2026-05-08 14:22 -7.31002 112.38979 5784 ft 244 kts 101°
2026-05-08 14:22 -7.31316 112.40635 5520 ft 237 kts 101°
2026-05-08 14:22 -7.31628 112.42247 5270 ft 232 kts 101°
2026-05-08 14:23 -7.31938 112.43823 5054 ft 226 kts 101°
2026-05-08 14:23 -7.32237 112.45333 4947 ft 214 kts 101°
2026-05-08 14:23 -7.32523 112.46764 4870 ft 206 kts 101°
2026-05-08 14:23 -7.32808 112.48185 4778 ft 207 kts 101°
2026-05-08 14:24 -7.33093 112.49604 4683 ft 207 kts 101°
2026-05-08 14:24 -7.33375 112.51007 4558 ft 202 kts 101°
2026-05-08 14:24 -7.33653 112.52382 4353 ft 197 kts 102°
2026-05-08 14:24 -7.33920 112.53722 4159 ft 194 kts 100°
2026-05-08 14:25 -7.34149 112.55040 3956 ft 193 kts 99°
2026-05-08 14:25 -7.34370 112.56387 3751 ft 192 kts 99°
2026-05-08 14:25 -7.34584 112.57710 3550 ft 191 kts 99°
2026-05-08 14:25 -7.34794 112.59010 3349 ft 190 kts 99°
2026-05-08 14:26 -7.35006 112.60323 3148 ft 190 kts 99°
2026-05-08 14:26 -7.35219 112.61637 3047 ft 190 kts 99°
2026-05-08 14:26 -7.35435 112.62972 2851 ft 195 kts 99°
2026-05-08 14:26 -7.35656 112.64336 2604 ft 194 kts 99°
2026-05-08 14:27 -7.35869 112.65650 2352 ft 191 kts 99°
2026-05-08 14:27 -7.36078 112.66939 2093 ft 182 kts 99°
2026-05-08 14:27 -7.36276 112.68162 1857 ft 172 kts 99°
2026-05-08 14:27 -7.36464 112.69323 1638 ft 162 kts 99°
2026-05-08 14:28 -7.36639 112.70404 1432 ft 152 kts 98°
2026-05-08 14:28 -7.36804 112.71422 1254 ft 147 kts 99°
2026-05-08 14:28 -7.36970 112.72439 1053 ft 146 kts 98°
2026-05-08 14:28 -7.37128 112.73422 847 ft 140 kts 98°
2026-05-08 14:29 -7.37297 112.74394 715 ft 143 kts 98°
2026-05-08 14:29 -7.37459 112.75407 479 ft 148 kts 97°
2026-05-08 14:29 -7.37619 112.76429 251 ft 148 kts 100°
2026-05-08 14:29 -7.37779 112.77439 27 ft 142 kts 99°
2026-05-08 14:30 -7.37920 112.78293 8 ft 95 kts 99°
2026-05-08 14:30 -7.37993 112.78752 9 ft 49 kts 99°
2026-05-08 14:30 -7.38044 112.79070 10 ft 36 kts 98°
2026-05-08 14:30 -7.38030 112.79275 10 ft 25 kts 69°
2026-05-08 14:31 -7.37971 112.79403 8 ft 9 kts 34°
2026-05-08 14:31 -7.37910 112.79416 8 ft 9 kts
2026-05-08 14:31 -7.37849 112.79424 8 ft 9 kts
2026-05-08 14:32 -7.37743 112.79443 8 ft 7 kts
2026-05-08 14:32 -7.37694 112.79451 8 ft 7 kts 10°
2026-05-08 14:32 -7.37649 112.79459 8 ft 3 kts
2026-05-08 14:32 -7.37626 112.79463 8 ft 3 kts
2026-05-08 14:33 -7.37604 112.79467 8 ft 3 kts
2026-05-08 14:33 -7.37592 112.79469 8 ft 0 kts